TimeCDT,TemperatureF,Dew PointF,Humidity,Sea Level PressureIn,VisibilityMPH,Wind Direction,Wind SpeedMPH,Gust SpeedMPH,PrecipitationIn,Events,Conditions,WindDirDegrees,DateUTC
12:56 AM,61.0,55.9,83,30.04,10.0,Calm,Calm,-,N/A,,Clear,0,2012-10-10 05:56:00
1:56 AM,55.0,52.0,89,30.04,10.0,Calm,Calm,-,N/A,,Clear,0,2012-10-10 06:56:00
2:56 AM,53.1,51.1,93,30.05,10.0,NW,3.5,-,N/A,,Clear,320,2012-10-10 07:56:00
3:56 AM,54.0,52.0,93,30.06,9.0,NW,4.6,-,N/A,,Clear,310,2012-10-10 08:56:00
4:56 AM,53.1,51.1,93,30.07,9.0,NW,4.6,-,N/A,,Clear,320,2012-10-10 09:56:00
5:56 AM,54.0,52.0,93,30.09,6.0,NW,4.6,-,N/A,,Clear,310,2012-10-10 10:56:00
6:56 AM,55.0,53.1,93,30.10,10.0,Calm,Calm,-,N/A,,Clear,0,2012-10-10 11:56:00
7:56 AM,62.1,57.0,84,30.12,10.0,Calm,Calm,-,N/A,,Clear,0,2012-10-10 12:56:00
8:56 AM,66.0,59.0,78,30.12,10.0,Calm,Calm,-,N/A,,Clear,0,2012-10-10 13:56:00
9:56 AM,73.0,60.1,64,30.12,10.0,North,3.5,-,N/A,,Clear,350,2012-10-10 14:56:00
10:56 AM,75.9,59.0,56,30.12,10.0,NNW,6.9,-,N/A,,Clear,330,2012-10-10 15:56:00
11:56 AM,79.0,57.9,48,30.11,10.0,Variable,5.8,-,N/A,,Clear,0,2012-10-10 16:56:00
12:56 PM,80.1,57.9,47,30.09,10.0,North,5.8,-,N/A,,Clear,10,2012-10-10 17:56:00
1:56 PM,82.0,57.9,44,30.07,10.0,NE,8.1,-,N/A,,Clear,40,2012-10-10 18:56:00
2:56 PM,82.0,59.0,45,30.05,10.0,North,8.1,-,N/A,,Clear,10,2012-10-10 19:56:00
3:56 PM,82.9,60.1,46,30.05,10.0,North,9.2,-,N/A,,Partly Cloudy,350,2012-10-10 20:56:00
4:56 PM,81.0,60.1,49,30.05,10.0,North,11.5,-,N/A,,Clear,10,2012-10-10 21:56:00
5:56 PM,77.0,60.1,56,30.06,10.0,North,8.1,-,N/A,,Clear,10,2012-10-10 22:56:00
6:56 PM,73.9,61.0,64,30.07,10.0,NE,5.8,-,N/A,,Clear,50,2012-10-10 23:56:00
7:56 PM,71.1,60.1,68,30.09,10.0,NNE,4.6,-,N/A,,Clear,20,2012-10-11 00:56:00
8:56 PM,64.9,61.0,87,30.11,10.0,Calm,Calm,-,N/A,,Clear,0,2012-10-11 01:56:00
9:56 PM,64.0,60.1,87,30.12,10.0,North,4.6,-,N/A,,Clear,10,2012-10-11 02:56:00
10:56 PM,62.1,57.9,86,30.12,10.0,North,4.6,-,N/A,,Clear,10,2012-10-11 03:56:00
11:56 PM,62.1,59.0,90,30.12,10.0,Calm,Calm,-,N/A,,Clear,0,2012-10-11 04:56:00